Minot AFB, ND

12:58 PM CST on February 24, 2018 (GMT -0600)
Minot Air Force Base

Weather History for KMIB - August, 2012

Change the Weather History Date:

Tuesday, August 21, 2012

  Actual Average Record
Temperature  
Mean Temperature 78 °F -  
Max Temperature 93 °F 80 °F 93 °F (2012)
Min Temperature 63 °F 53 °F 41 °F (2004)
Cooling Degree Days 13    
Growing Degree Days 28 (Base 50)    
Moisture  
Dew Point 48 °F    
Average Humidity 39    
Maximum Humidity 60    
Minimum Humidity 18    
Precipitation  
Precipitation 0.00 in - - ()
Sea Level Pressure  
Sea Level Pressure 29.84 in    
Wind  
Wind Speed 9 mph (SW)    
Max Wind Speed 13 mph    
Max Gust Speed 18 mph    
Visibility 10 miles    
Events      
Averages and records for this station are not official NWS values.
T = Trace of Precipitation, MM = Missing Value Source: NWS Daily Summary

Daily Weather History Graph

Daily Weather History Graph

Search for Another Location

Airport or City:

Trip Planner

Search our weather history database for the weather conditions in past years. The results will help you decide how hot, cold, wet, or windy it might be!

Date:

Astronomy

Aug. 21, 2012 Rise Set
Actual Time 6:48 AM CDT 8:47 PM CDT
Civil Twilight 6:14 AM CDT 9:21 PM CDT
Nautical Twilight 5:32 AM CDT 10:02 PM CDT
Astronomical Twilight 4:46 AM CDT 10:48 PM CDT
Moon 11:50 AM CDT (8/21) 10:18 PM CDT (8/21)
Length of Visible Light 15h 06m
Length of Day
13h 59m
Waxing Crescent, 19% of the Moon is Illuminated
Aug 21
Waxing Crescent
Aug 24
First Quarter
Aug 31
Full
Sep 8
Last Quarter
Sep 15
New

Hourly Weather History & Observations

Time (CDT) Temp. Dew Point Humidity Pressure Visibility Wind Dir Wind Speed Gust Speed Precip Events Conditions
12:55 AM 68.4 °F 51.3 °F 54% 29.88 in 10.0 mi South 9.2 mph - N/A   Clear
1:55 AM 68.4 °F 50.4 °F 53% 29.88 in 10.0 mi SSW 8.1 mph - N/A   Clear
2:55 AM 68.4 °F 49.8 °F 51% 29.87 in 10.0 mi SW 10.4 mph - N/A   Clear
3:55 AM 66.6 °F 49.1 °F 53% 29.87 in 10.0 mi SW 10.4 mph 18.4 mph N/A   Clear
4:55 AM 65.3 °F 48.9 °F 55% 29.87 in 10.0 mi SW 11.5 mph - N/A   Clear
5:55 AM 63.9 °F 49.1 °F 59% 29.87 in 10.0 mi SW 9.2 mph - N/A   Clear
6:55 AM 63.0 °F 48.9 °F 60% 29.88 in 10.0 mi SW 10.4 mph - N/A   Clear
7:55 AM 66.7 °F 48.6 °F 52% 29.89 in 10.0 mi Variable 4.6 mph - N/A   Clear
8:55 AM 70.0 °F 48.6 °F 46% 29.90 in 10.0 mi WNW 6.9 mph - N/A   Clear
9:55 AM 74.3 °F 49.5 °F 41% 29.89 in 10.0 mi West 4.6 mph - N/A   Clear
10:55 AM 80.6 °F 50.0 °F 34% 29.88 in 10.0 mi Variable 4.6 mph - N/A   Clear
11:55 AM 85.6 °F 50.7 °F 30% 29.88 in 10.0 mi SW 8.1 mph - N/A   Clear
12:55 PM 88.7 °F 50.2 °F 27% 29.86 in 10.0 mi SW 8.1 mph - N/A   Clear
1:55 PM 91.8 °F 47.1 °F 21% 29.85 in 10.0 mi SW 11.5 mph - N/A   Clear
2:55 PM 92.1 °F 43.7 °F 19% 29.83 in 10.0 mi SW 11.5 mph - N/A   Clear
3:55 PM 93.0 °F 44.1 °F 18% 29.82 in 10.0 mi West 9.2 mph - N/A   Clear
4:55 PM 92.8 °F 44.6 °F 19% 29.80 in 10.0 mi WSW 12.7 mph 18.4 mph N/A   Clear
5:55 PM 90.5 °F 46.2 °F 22% 29.80 in 10.0 mi SW 6.9 mph - N/A   Clear
6:55 PM 88.3 °F 46.6 °F 23% 29.80 in 10.0 mi SSW 5.8 mph - N/A   Clear
7:55 PM 84.9 °F 46.8 °F 26% 29.79 in 10.0 mi South 12.7 mph - N/A   Clear
8:55 PM 75.4 °F 48.6 °F 39% 29.79 in 10.0 mi South 9.2 mph - N/A   Clear
9:55 PM 69.8 °F 48.4 °F 46% 29.80 in 10.0 mi SSE 8.1 mph - N/A   Clear
10:55 PM 73.8 °F 47.1 °F 39% 29.79 in 10.0 mi South 11.5 mph - N/A   Clear
11:55 PM 71.1 °F 48.9 °F 45% 29.78 in 10.0 mi South 8.1 mph - N/A   Clear